This demonstration page uses our WeatherBlox Daily Observations layout. Learn more.

Left ArrowRight Arrow

Hourly Observations for February 25, 2019

Temp ( °F °C ) Dew Point ( °F °C ) Humidity (%) Winds ( mph kmh ) Pressure ( in mb ) Visibility ( mi km ) Precip ( " mm )
12:15 am 00:15 Clear 25 -4 18 -8 74 74 W 17 28 30.21 1023 10 16 N/A
12:35 am 00:35 Clear 25 -4 19 -7 80 80 W 22 35 30.22 1023 10 16 N/A
12:36 am 00:36 Clear 25 -4 19 -7 80 80 W 24 39 30.22 1023 10 16 N/A
12:55 am 00:55 Clear 23 -5 16 -9 74 74 W 21 33 30.23 1024 10 16 N/A
1:15 am 01:15 Clear 23 -5 16 -9 74 74 W 17 28 30.25 1025 10 16 N/A
1:35 am 01:35 Clear 23 -5 18 -8 80 80 W 24 39 30.25 1025 10 16 N/A
1:36 am 01:36 Clear 23 -5 18 -8 80 80 W 22 35 30.25 1025 10 16 N/A
1:55 am 01:55 Clear 23 -5 16 -9 74 74 W 23 37 30.26 1025 10 16 N/A
2:15 am 02:15 Clear 21 -6 14 -10 74 74 W 21 33 30.29 1026 10 16 N/A
2:35 am 02:35 Clear 21 -6 16 -9 80 80 W 17 28 30.30 1026 10 16 N/A
2:36 am 02:36 Clear 21 -6 16 -9 80 80 W 18 30 30.30 1026 10 16 N/A
2:55 am 02:55 Clear 21 -6 14 -10 74 74 W 20 31 30.31 1026 10 16 N/A
3:15 am 03:15 Clear 21 -6 14 -10 74 74 W 21 33 30.31 1026 10 16 N/A
3:35 am 03:35 Clear 19 -7 12 -11 73 73 WNW 20 31 30.32 1027 10 16 N/A
3:36 am 03:36 Clear 19 -7 12 -11 73 73 WNW 18 30 30.32 1027 10 16 N/A
3:55 am 03:55 Clear 19 -7 14 -10 79 79 W 22 35 30.33 1027 10 16 N/A
4:15 am 04:15 Clear 19 -7 12 -11 73 73 W 17 28 30.34 1027 10 16 N/A
4:16 am 04:16 Clear 19 -7 12 -11 73 73 W 17 28 30.34 1027 10 16 N/A
4:35 am 04:35 Clear 19 -7 12 -11 73 73 W 20 31 30.36 1028 10 16 N/A
4:55 am 04:55 Clear 19 -7 10 -12 68 68 W 25 41 30.37 1029 10 16 N/A
5:15 am 05:15 Clear 18 -8 10 -12 73 73 WNW 20 31 30.40 1029 10 16 N/A
5:16 am 05:16 Clear 18 -8 10 -12 73 73 WNW 20 31 30.39 1029 10 16 N/A
5:35 am 05:35 Clear 18 -8 10 -12 73 73 W 18 30 30.40 1029 10 16 N/A
5:55 am 05:55 Clear 18 -8 10 -12 73 73 W 18 30 30.41 1030 10 16 N/A
6:15 am 06:15 Clear 18 -8 10 -12 73 73 W 16 26 30.42 1030 10 16 N/A
6:16 am 06:16 Clear 18 -8 10 -12 73 73 W 16 26 30.42 1030 10 16 N/A
6:35 am 06:35 Clear 18 -8 9 -13 68 68 W 17 28 30.44 1031 10 16 N/A
6:55 am 06:55 Clear 18 -8 9 -13 68 68 W 15 24 30.45 1031 10 16 N/A
7:15 am 07:15 Clear 18 -8 10 -12 73 73 W 14 22 30.46 1031 10 16 N/A
7:16 am 07:16 Clear 18 -8 10 -12 73 73 W 14 22 30.46 1031 10 16 N/A
7:35 am 07:35 Sunny 16 -9 9 -13 73 73 WNW 16 26 30.46 1031 10 16 N/A
7:55 am 07:55 Sunny 18 -8 10 -12 73 73 W 16 26 30.47 1032 10 16 N/A
8:15 am 08:15 Sunny 18 -8 10 -12 73 73 W 18 30 30.48 1032 10 16 N/A
8:16 am 08:16 Sunny 18 -8 10 -12 73 73 W 16 26 30.49 1032 10 16 N/A
8:35 am 08:35 Sunny 19 -7 10 -12 68 68 W 14 22 30.48 1032 10 16 N/A
8:55 am 08:55 Sunny 19 -7 10 -12 68 68 W 17 28 30.49 1033 10 16 N/A
9:15 am 09:15 Sunny 21 -6 10 -12 63 63 W 14 22 30.51 1033 10 16 N/A
9:16 am 09:16 Sunny 21 -6 10 -12 63 63 W 15 24 30.51 1033 10 16 N/A
9:35 am 09:35 Sunny 21 -6 10 -12 63 63 W 13 20 30.52 1033 10 16 N/A
9:55 am 09:55 Sunny 23 -5 10 -12 58 58 W 13 20 30.52 1034 10 16 N/A
10:15 am 10:15 Sunny 23 -5 10 -12 58 58 W 13 20 30.52 1034 10 16 N/A
10:16 am 10:16 Sunny 23 -5 10 -12 58 58 WNW 13 20 30.52 1034 10 16 N/A
10:35 am 10:35 Sunny 25 -4 10 -12 54 54 W 9 15 30.51 1033 10 16 N/A
10:55 am 10:55 Sunny 25 -4 10 -12 54 54 WNW 14 22 30.51 1033 10 16 N/A
10:56 am 10:56 Sunny 25 -4 10 -12 54 54 WNW 14 22 30.51 1033 10 16 N/A
11:15 am 11:15 Sunny 27 -3 10 -12 50 50 WNW 9 15 30.51 1033 10 16 N/A
11:35 am 11:35 Sunny 27 -3 9 -13 46 46 NW 13 20 30.51 1033 10 16 N/A
11:55 am 11:55 Sunny 28 -2 10 -12 47 47 W 13 20 30.50 1033 10 16 N/A
11:56 am 11:56 Sunny 28 -2 10 -12 47 47 W 13 20 30.51 1033 10 16 N/A
12:15 pm 12:15 Sunny 28 -2 9 -13 43 43 WNW 10 17 30.51 1033 10 16 N/A
12:35 pm 12:35 Sunny 30 -1 10 -12 43 43 W 8 13 30.51 1033 10 16 N/A
12:55 pm 12:55 Sunny 32 undefined 10 -12 40 40 W 10 17 30.51 1033 10 16 N/A
12:56 pm 12:56 Sunny 32 undefined 10 -12 40 40 W 9 15 30.51 1033 10 16 N/A
1:15 pm 13:15 Sunny 32 undefined 10 -12 40 40 W 9 15 30.51 1033 10 16 N/A
1:35 pm 13:35 Sunny 32 undefined 10 -12 40 40 WNW 10 17 30.50 1033 10 16 N/A
1:55 pm 13:55 Sunny 32 undefined 12 -11 44 44 W 8 13 30.49 1032 10 16 N/A
1:56 pm 13:56 Sunny 32 undefined 12 -11 44 44 W 9 15 30.49 1032 10 16 N/A
2:15 pm 14:15 Sunny 32 undefined 10 -12 40 40 NW 9 15 30.49 1032 10 16 N/A
2:35 pm 14:35 Sunny 34 1 12 -11 41 41 W 10 17 30.48 1032 10 16 N/A
2:55 pm 14:55 Sunny 34 1 12 -11 41 41 W 9 15 30.48 1032 10 16 N/A
2:56 pm 14:56 Sunny 34 1 12 -11 41 41 WNW 9 15 30.48 1032 10 16 N/A
3:15 pm 15:15 Sunny 34 1 12 -11 41 41 W 9 15 30.47 1032 10 16 N/A
3:35 pm 15:35 Sunny 34 1 12 -11 41 41 W 8 13 30.47 1032 10 16 N/A
3:36 pm 15:36 Sunny 34 1 12 -11 41 41 W 7 11 30.47 1032 10 16 N/A
3:55 pm 15:55 Sunny 34 1 12 -11 41 41 W 8 13 30.45 1031 10 16 N/A
3:56 pm 15:56 Sunny 34 1 12 -11 41 41 W 7 11 30.45 1031 10 16 N/A
4:15 pm 16:15 Sunny 34 1 10 -12 38 38 WSW 3 6 30.45 1031 10 16 N/A
4:35 pm 16:35 Sunny 36 2 12 -11 38 38 WSW 7 11 30.45 1031 10 16 N/A
4:36 pm 16:36 Sunny 36 2 12 -11 38 38 W 6 9 30.45 1031 10 16 N/A
4:55 pm 16:55 Sunny 36 2 14 -10 41 41 SW 7 11 30.45 1031 10 16 N/A
4:56 pm 16:56 Sunny 36 2 14 -10 41 41 SW 5 7 30.45 1031 10 16 N/A
5:15 pm 17:15 Sunny 34 1 12 -11 41 41 W 6 9 30.45 1031 10 16 N/A
5:55 pm 17:55 Sunny 32 undefined 10 -12 40 40 W 3 6 30.46 1031 10 16 N/A
5:56 pm 17:56 Sunny 32 undefined 10 -12 40 40 W 3 6 30.46 1031 10 16 N/A
6:15 pm 18:15 Mostly Cloudy 30 -1 12 -11 47 47 WNW 3 6 30.46 1031 10 16 N/A
6:35 pm 18:35 Cloudy 30 -1 14 -10 51 51 N N/A 30.45 1031 10 16 N/A
6:36 pm 18:36 Cloudy 30 -1 14 -10 51 51 N N/A 30.45 1031 10 16 N/A
6:55 pm 18:55 Cloudy 30 -1 21 -6 69 69 N N/A 30.46 1031 10 16 N/A
7:15 pm 19:15 Cloudy 30 -1 16 -9 55 55 N N/A 30.46 1031 10 16 N/A
7:35 pm 19:35 Cloudy 28 -2 21 -6 74 74 N N/A 30.46 1032 10 16 N/A
7:36 pm 19:36 Cloudy 28 -2 21 -6 74 74 N N/A 30.46 1032 10 16 N/A
7:55 pm 19:55 Cloudy 28 -2 23 -5 80 80 N N/A 30.46 1032 10 16 N/A
8:15 pm 20:15 Cloudy 28 -2 23 -5 80 80 N N/A 30.46 1032 10 16 N/A
8:35 pm 20:35 Cloudy 28 -2 23 -5 80 80 NNE 3 6 30.46 1032 10 16 N/A
8:36 pm 20:36 Cloudy 28 -2 23 -5 80 80 NNE 5 7 30.46 1032 10 16 N/A
8:55 pm 20:55 Cloudy 27 -3 21 -6 80 80 N N/A 30.46 1031 10 16 N/A
9:15 pm 21:15 Cloudy 27 -3 23 -5 86 86 N N/A 30.45 1031 10 16 N/A
9:16 pm 21:16 Cloudy 27 -3 23 -5 86 86 N N/A 30.45 1031 10 16 N/A
9:35 pm 21:35 Cloudy 27 -3 23 -5 86 86 N N/A 30.46 1031 10 16 N/A
9:55 pm 21:55 Cloudy 27 -3 23 -5 86 86 NE 5 7 30.46 1031 10 16 N/A
10:15 pm 22:15 Cloudy 27 -3 25 -4 93 93 NE 5 7 30.46 1031 10 16 N/A
10:16 pm 22:16 Cloudy 27 -3 23 -5 86 86 NE 5 7 30.46 1031 10 16 N/A
10:35 pm 22:35 Cloudy 27 -3 23 -5 86 86 NNE 5 7 30.47 1032 10 16 N/A
10:36 pm 22:36 Cloudy 27 -3 23 -5 86 86 NNE 5 7 30.47 1032 10 16 N/A
10:55 pm 22:55 Cloudy 28 -2 23 -5 80 80 NNE 7 11 30.46 1032 10 16 N/A
11:15 pm 23:15 Cloudy 28 -2 21 -6 74 74 NNE 6 9 30.46 1032 10 16 N/A
11:16 pm 23:16 Cloudy 28 -2 21 -6 74 74 NNE 6 9 30.46 1032 10 16 N/A
11:35 pm 23:35 Cloudy 28 -2 21 -6 74 74 NNE 5 7 30.45 1031 10 16 N/A
11:36 pm 23:36 Cloudy 28 -2 21 -6 74 74 NE 5 7 30.45 1031 10 16 N/A
11:55 pm 23:55 Cloudy 28 -2 21 -6 74 74 NNE 3 6 30.45 1031 10 16 N/A

Powered by AerisWeather